Location: Gunung Kajang
(2.4167°N, 113.7167°E)
Time: 23:07:30
(UTC+00:00)

Cosmos 676 Rocket - Pass Details

Date: 29 May 2022
Orbit: 753 x 784 km, 74.0° (Epoch: 24 June)

Event Time Altitude Azimuth Distance (km) Brightness Sun altitude
Rises 20:51:09 0° 343° (NNW) 3,257 7.3 -20.2°
Reaches altitude 10° 20:53:32 10° 340° (NNW) 2,329 6.5 -19.6°
Maximum altitude 20:58:48 68° 258° (WSW) 840 3.9 -18.4°
Drops below altitude 10° 21:04:03 10° 176° (S) 2,323 6.3 -17.2°
Sets 21:06:26 0° 173° (S) 3,248 7.1 -16.7°
